Time,TemperatureF,DewpointF,PressureIn,WindDirection,WindDirectionDegrees,WindSpeedMPH,WindSpeedGustMPH,Humidity,HourlyPrecipIn,Conditions,Clouds,dailyrainin,SoftwareType,DateUTC
2013-10-06 00:01:00,72.1,64.1,29.41,WSW,239,0.0,0.0,76,0.00,CLR,,0.00,WeatherDisplay:10.37,2013-10-06 04:01:00,
2013-10-06 00:02:00,72.1,64.1,29.41,WSW,239,0.0,0.0,76,0.00,CLR,,0.00,WeatherDisplay:10.37,2013-10-06 04:02:00,
2013-10-06 00:07:00,72.1,64.1,29.41,SW,222,3.5,3.5,76,0.00,CLR,,0.00,WeatherDisplay:10.37,2013-10-06 04:07:00,
2013-10-06 00:12:00,72.1,64.1,29.41,SW,233,0.0,0.0,76,0.00,CLR,,0.00,WeatherDisplay:10.37,2013-10-06 04:12:00,
2013-10-06 00:17:00,71.8,63.8,29.41,WSW,240,0.0,0.0,76,0.00,CLR,,0.00,WeatherDisplay:10.37,2013-10-06 04:17:00,
2013-10-06 00:22:00,71.8,64.6,29.41,West,260,4.6,0.0,78,0.00,CLR,,0.00,WeatherDisplay:10.37,2013-10-06 04:22:00,
2013-10-06 00:27:00,71.6,64.4,29.41,SW,223,6.9,0.0,78,0.00,CLR,,0.00,WeatherDisplay:10.37,2013-10-06 04:27:00,
2013-10-06 00:32:00,71.6,64.4,29.41,WSW,240,4.6,5.0,78,0.00,CLR,,0.00,WeatherDisplay:10.37,2013-10-06 04:32:00,
2013-10-06 00:37:00,71.5,64.3,29.41,SW,226,0.0,0.0,78,0.00,CLR,,0.00,WeatherDisplay:10.37,2013-10-06 04:37:00,
2013-10-06 00:42:00,71.3,64.1,29.41,SW,232,0.0,0.0,78,0.00,CLR,,0.00,WeatherDisplay:10.37,2013-10-06 04:42:00,
2013-10-06 00:47:00,71.1,64.6,29.41,WSW,250,2.0,2.0,80,0.00,CLR,,0.00,WeatherDisplay:10.37,2013-10-06 04:47:00,
2013-10-06 00:52:00,71.1,64.6,29.41,SW,232,2.3,2.3,80,0.00,CLR,,0.00,WeatherDisplay:10.37,2013-10-06 04:52:00,
2013-10-06 00:57:00,70.9,64.4,29.41,WSW,248,3.5,3.5,80,0.00,CLR,,0.00,WeatherDisplay:10.37,2013-10-06 04:57:00,
2013-10-06 01:02:00,70.9,64.8,29.41,SW,232,2.3,2.3,81,0.00,CLR,,0.00,WeatherDisplay:10.37,2013-10-06 05:02:00,
2013-10-06 01:07:00,70.8,64.7,29.41,SW,230,3.5,3.5,81,0.00,CLR,,0.00,WeatherDisplay:10.37,2013-10-06 05:07:00,
2013-10-06 01:12:00,70.6,64.8,29.41,WSW,237,3.5,3.5,82,0.00,CLR,,0.00,WeatherDisplay:10.37,2013-10-06 05:12:00,
2013-10-06 01:17:00,70.6,64.8,29.41,WNW,284,0.0,0.0,82,0.00,CLR,,0.00,WeatherDisplay:10.37,2013-10-06 05:17:00,
2013-10-06 01:22:00,70.4,64.6,29.41,SW,234,0.0,0.0,82,0.00,CLR,,0.00,WeatherDisplay:10.37,2013-10-06 05:22:00,
2013-10-06 01:27:00,70.4,64.6,29.40,WSW,246,0.0,0.0,82,0.00,CLR,,0.00,WeatherDisplay:10.37,2013-10-06 05:27:00,
2013-10-06 01:32:00,70.1,64.3,29.40,WSW,237,0.0,0.0,82,0.00,CLR,,0.00,WeatherDisplay:10.37,2013-10-06 05:32:00,
2013-10-06 01:37:00,70.1,64.7,29.40,WSW,247,0.0,0.0,83,0.00,CLR,,0.00,WeatherDisplay:10.37,2013-10-06 05:37:00,
2013-10-06 01:42:00,69.9,64.8,29.40,SW,222,0.0,0.0,84,0.00,CLR,,0.00,WeatherDisplay:10.37,2013-10-06 05:42:00,
2013-10-06 01:47:00,69.9,64.8,29.40,WSW,237,0.0,0.0,84,0.00,CLR,,0.00,WeatherDisplay:10.37,2013-10-06 05:47:00,
2013-10-06 01:52:00,69.8,64.7,29.40,SW,232,2.3,2.3,84,0.00,CLR,,0.00,WeatherDisplay:10.37,2013-10-06 05:52:00,
2013-10-06 01:57:00,69.8,64.7,29.40,WSW,247,1.1,1.1,84,0.00,CLR,,0.00,WeatherDisplay:10.37,2013-10-06 05:57:00,
2013-10-06 02:02:00,69.8,64.7,29.40,WSW,247,0.0,0.0,84,0.00,CLR,,0.00,WeatherDisplay:10.37,2013-10-06 06:02:00,
2013-10-06 02:07:00,69.6,64.5,29.40,WSW,247,3.5,3.5,84,0.00,CLR,,0.00,WeatherDisplay:10.37,2013-10-06 06:07:00,
2013-10-06 02:12:00,69.6,64.5,29.40,WSW,241,2.3,2.3,84,0.00,CLR,,0.00,WeatherDisplay:10.37,2013-10-06 06:12:00,
2013-10-06 02:17:00,69.6,64.5,29.40,WSW,243,2.3,2.3,84,0.00,CLR,,0.00,WeatherDisplay:10.37,2013-10-06 06:17:00,
2013-10-06 02:22:00,69.4,64.4,29.40,WSW,244,0.0,0.0,84,0.00,CLR,,0.00,WeatherDisplay:10.37,2013-10-06 06:22:00,
2013-10-06 02:27:00,69.4,64.4,29.40,WSW,244,1.0,0.0,84,0.00,CLR,,0.00,WeatherDisplay:10.37,2013-10-06 06:27:00,
2013-10-06 02:32:00,69.4,64.7,29.40,WSW,237,0.0,0.0,85,0.00,CLR,,0.00,WeatherDisplay:10.37,2013-10-06 06:32:00,
2013-10-06 02:37:00,69.3,64.6,29.40,WSW,237,2.3,2.3,85,0.00,CLR,,0.00,WeatherDisplay:10.37,2013-10-06 06:37:00,
2013-10-06 02:42:00,69.1,64.4,29.39,SW,230,0.0,0.0,85,0.00,CLR,,0.00,WeatherDisplay:10.37,2013-10-06 06:42:00,
2013-10-06 02:47:00,69.1,64.4,29.39,SW,233,0.0,0.0,85,0.00,CLR,,0.00,WeatherDisplay:10.37,2013-10-06 06:47:00,
2013-10-06 02:52:00,68.9,64.5,29.39,SW,236,3.5,0.0,86,0.00,CLR,,0.00,WeatherDisplay:10.37,2013-10-06 06:52:00,
2013-10-06 02:57:00,68.9,64.5,29.39,WSW,237,2.3,0.0,86,0.00,CLR,,0.00,WeatherDisplay:10.37,2013-10-06 06:57:00,
2013-10-06 03:02:00,68.8,64.4,29.39,WSW,237,0.0,0.0,86,0.00,CLR,,0.00,WeatherDisplay:10.37,2013-10-06 07:02:00,
2013-10-06 03:07:00,68.6,64.6,29.39,WSW,237,2.3,2.3,87,0.00,CLR,,0.00,WeatherDisplay:10.37,2013-10-06 07:07:00,
2013-10-06 03:12:00,68.4,64.7,29.38,WSW,237,3.5,3.5,88,0.00,CLR,,0.00,WeatherDisplay:10.37,2013-10-06 07:12:00,
2013-10-06 03:18:00,68.4,64.7,29.38,WSW,237,0.0,0.0,88,0.00,CLR,,0.00,WeatherDisplay:10.37,2013-10-06 07:18:00,
2013-10-06 03:23:00,68.3,64.6,29.38,WSW,237,0.0,0.0,88,0.00,CLR,,0.00,WeatherDisplay:10.37,2013-10-06 07:23:00,
2013-10-06 03:28:00,68.1,64.7,29.38,WSW,237,0.0,0.0,89,0.00,CLR,,0.00,WeatherDisplay:10.37,2013-10-06 07:28:00,
2013-10-06 03:33:00,68.1,64.7,29.38,WSW,239,0.0,0.0,89,0.00,CLR,,0.00,WeatherDisplay:10.37,2013-10-06 07:33:00,
2013-10-06 03:38:00,67.9,64.5,29.38,WSW,239,0.0,0.1,89,0.00,CLR,,0.00,WeatherDisplay:10.37,2013-10-06 07:38:00,
2013-10-06 03:43:00,67.9,64.5,29.38,WSW,239,0.0,0.0,89,0.00,CLR,,0.00,WeatherDisplay:10.37,2013-10-06 07:43:00,
2013-10-06 03:48:00,67.8,64.4,29.38,WSW,239,0.0,0.0,89,0.00,CLR,,0.00,WeatherDisplay:10.37,2013-10-06 07:48:00,
2013-10-06 03:53:00,67.8,64.8,29.38,WSW,239,0.0,0.0,90,0.00,CLR,,0.00,WeatherDisplay:10.37,2013-10-06 07:53:00,
2013-10-06 03:58:00,67.6,64.6,29.38,WSW,239,0.0,0.0,90,0.00,CLR,,0.00,WeatherDisplay:10.37,2013-10-06 07:58:00,
2013-10-06 04:03:00,67.6,64.6,29.38,WSW,239,0.0,0.0,90,0.00,CLR,,0.00,WeatherDisplay:10.37,2013-10-06 08:03:00,
2013-10-06 04:08:00,67.4,64.7,29.38,WSW,239,0.0,0.0,91,0.00,CLR,,0.00,WeatherDisplay:10.37,2013-10-06 08:08:00,
2013-10-06 04:13:00,67.3,64.6,29.39,WSW,239,0.0,0.0,91,0.00,CLR,,0.00,WeatherDisplay:10.37,2013-10-06 08:13:00,
2013-10-06 04:18:00,67.3,64.9,29.39,WSW,239,0.0,0.0,92,0.00,CLR,,0.00,WeatherDisplay:10.37,2013-10-06 08:18:00,
2013-10-06 04:23:00,67.3,64.9,29.39,WSW,239,0.0,0.0,92,0.00,CLR,,0.00,WeatherDisplay:10.37,2013-10-06 08:23:00,
2013-10-06 04:28:00,67.1,64.7,29.39,WSW,239,0.0,0.0,92,0.00,CLR,,0.00,WeatherDisplay:10.37,2013-10-06 08:28:00,
2013-10-06 04:33:00,67.1,64.7,29.39,WSW,239,0.0,0.0,92,0.00,CLR,,0.00,WeatherDisplay:10.37,2013-10-06 08:33:00,
2013-10-06 04:38:00,67.1,64.7,29.39,WSW,239,0.0,0.0,92,0.00,CLR,,0.00,WeatherDisplay:10.37,2013-10-06 08:38:00,
2013-10-06 04:43:00,67.1,65.0,29.39,WSW,239,0.0,0.0,93,0.00,CLR,,0.00,WeatherDisplay:10.37,2013-10-06 08:43:00,
2013-10-06 04:48:00,67.1,65.0,29.39,WSW,239,0.0,0.0,93,0.00,CLR,,0.00,WeatherDisplay:10.37,2013-10-06 08:48:00,
2013-10-06 04:53:00,67.1,65.0,29.39,WSW,239,0.0,0.0,93,0.00,CLR,,0.00,WeatherDisplay:10.37,2013-10-06 08:53:00,
2013-10-06 04:58:00,67.1,65.0,29.39,WSW,239,2.3,2.3,93,0.00,CLR,,0.00,WeatherDisplay:10.37,2013-10-06 08:58:00,
2013-10-06 05:03:00,66.9,64.8,29.39,WSW,239,0.0,0.0,93,0.00,CLR,,0.00,WeatherDisplay:10.37,2013-10-06 09:03:00,
2013-10-06 05:08:00,66.9,64.8,29.39,WSW,239,0.0,0.0,93,0.00,CLR,,0.00,WeatherDisplay:10.37,2013-10-06 09:08:00,
2013-10-06 05:09:00,66.9,64.8,29.39,WSW,239,0.0,0.0,93,0.00,CLR,,0.00,WeatherDisplay:10.37,2013-10-06 09:09:00,
2013-10-06 05:14:00,66.9,64.8,29.39,WSW,239,0.0,0.0,93,0.00,CLR,,0.00,WeatherDisplay:10.37,2013-10-06 09:14:00,
2013-10-06 05:19:00,66.9,65.1,29.39,WSW,239,1.1,0.0,94,0.00,CLR,,0.00,WeatherDisplay:10.37,2013-10-06 09:19:00,
2013-10-06 05:24:00,66.8,65.0,29.39,WSW,239,0.0,0.0,94,0.00,CLR,,0.00,WeatherDisplay:10.37,2013-10-06 09:24:00,
2013-10-06 05:29:00,66.8,65.0,29.39,WSW,239,0.0,0.0,94,0.00,CLR,,0.00,WeatherDisplay:10.37,2013-10-06 09:29:00,
2013-10-06 05:34:00,66.8,65.0,29.39,WSW,239,0.0,0.0,94,0.00,CLR,,0.00,WeatherDisplay:10.37,2013-10-06 09:34:00,
2013-10-06 05:39:00,66.8,65.0,29.39,WSW,239,0.0,0.0,94,0.00,CLR,,0.00,WeatherDisplay:10.37,2013-10-06 09:39:00,
2013-10-06 05:44:00,66.8,65.0,29.39,WSW,239,0.0,0.0,94,0.00,CLR,,0.00,WeatherDisplay:10.37,2013-10-06 09:44:00,
2013-10-06 05:49:00,66.6,65.1,29.39,WSW,239,0.0,0.0,95,0.00,CLR,,0.00,WeatherDisplay:10.37,2013-10-06 09:49:00,
2013-10-06 05:54:00,66.6,65.1,29.39,WSW,239,0.0,0.0,95,0.00,CLR,,0.00,WeatherDisplay:10.37,2013-10-06 09:54:00,
2013-10-06 05:59:00,66.4,64.9,29.39,WSW,239,0.0,0.0,95,0.00,CLR,,0.00,WeatherDisplay:10.37,2013-10-06 09:59:00,
2013-10-06 06:04:00,66.3,64.8,29.39,WSW,239,0.0,0.0,95,0.00,CLR,,0.00,WeatherDisplay:10.37,2013-10-06 10:04:00,
2013-10-06 06:09:00,66.1,64.6,29.40,WSW,239,0.0,0.0,95,0.00,CLR,,0.00,WeatherDisplay:10.37,2013-10-06 10:09:00,
2013-10-06 06:14:00,66.1,64.6,29.40,WSW,239,0.0,0.0,95,0.00,CLR,,0.00,WeatherDisplay:10.37,2013-10-06 10:14:00,
2013-10-06 06:19:00,66.1,64.6,29.40,WSW,239,0.0,0.0,95,0.00,CLR,,0.00,WeatherDisplay:10.37,2013-10-06 10:19:00,
2013-10-06 06:24:00,66.1,64.9,29.40,WSW,239,0.0,0.0,96,0.00,CLR,,0.00,WeatherDisplay:10.37,2013-10-06 10:24:00,
2013-10-06 06:29:00,66.1,64.9,29.40,WSW,239,0.0,0.0,96,0.00,CLR,,0.00,WeatherDisplay:10.37,2013-10-06 10:29:00,
2013-10-06 06:34:00,66.0,64.8,29.40,WSW,239,0.0,0.0,96,0.00,CLR,,0.00,WeatherDisplay:10.37,2013-10-06 10:34:00,
2013-10-06 06:39:00,65.8,64.6,29.39,WSW,239,0.0,0.0,96,0.00,CLR,,0.00,WeatherDisplay:10.37,2013-10-06 10:39:00,
2013-10-06 06:44:00,65.6,64.4,29.39,WSW,239,0.0,0.0,96,0.00,CLR,,0.00,WeatherDisplay:10.37,2013-10-06 10:44:00,
2013-10-06 06:49:00,65.6,64.4,29.39,WSW,239,0.0,0.0,96,0.00,CLR,,0.00,WeatherDisplay:10.37,2013-10-06 10:49:00,
2013-10-06 06:54:00,65.5,64.3,29.40,WSW,239,0.0,0.0,96,0.00,CLR,,0.00,WeatherDisplay:10.37,2013-10-06 10:54:00,
2013-10-06 06:59:00,65.5,64.3,29.40,WSW,239,0.0,0.0,96,0.00,CLR,,0.00,WeatherDisplay:10.37,2013-10-06 10:59:00,
2013-10-06 07:04:00,65.5,64.3,29.40,WSW,239,0.0,0.0,96,0.00,CLR,,0.00,WeatherDisplay:10.37,2013-10-06 11:04:00,
2013-10-06 07:09:00,65.5,64.6,29.40,WSW,241,0.0,0.1,97,0.00,CLR,,0.00,WeatherDisplay:10.37,2013-10-06 11:09:00,
2013-10-06 07:14:00,65.5,64.3,29.40,WSW,241,0.0,0.0,96,0.00,CLR,,0.00,WeatherDisplay:10.37,2013-10-06 11:14:00,
2013-10-06 07:19:00,65.5,64.6,29.40,WSW,241,0.0,0.0,97,0.00,CLR,,0.00,WeatherDisplay:10.37,2013-10-06 11:19:00,
2013-10-06 07:24:00,65.3,64.1,29.40,WSW,241,0.0,0.0,96,0.00,CLR,,0.00,WeatherDisplay:10.37,2013-10-06 11:24:00,
2013-10-06 07:29:00,65.2,64.3,29.40,WSW,241,0.0,0.0,97,0.00,CLR,,0.00,WeatherDisplay:10.37,2013-10-06 11:29:00,
2013-10-06 07:34:00,65.2,64.3,29.40,WSW,241,0.0,0.0,97,0.00,CLR,,0.00,WeatherDisplay:10.37,2013-10-06 11:34:00,
2013-10-06 07:39:00,65.3,64.4,29.40,WSW,241,0.0,0.0,97,0.00,CLR,,0.00,WeatherDisplay:10.37,2013-10-06 11:39:00,
2013-10-06 07:44:00,65.6,65.0,29.40,WSW,241,0.0,0.0,98,0.00,CLR,,0.00,WeatherDisplay:10.37,2013-10-06 11:44:00,
2013-10-06 07:49:00,65.6,64.7,29.40,WSW,241,0.0,0.0,97,0.00,CLR,,0.00,WeatherDisplay:10.37,2013-10-06 11:49:00,
2013-10-06 07:54:00,65.3,64.4,29.40,WSW,241,0.0,0.0,97,0.00,CLR,,0.00,WeatherDisplay:10.37,2013-10-06 11:54:00,
2013-10-06 07:59:00,65.3,64.4,29.40,WSW,241,0.0,0.0,97,0.00,CLR,,0.00,WeatherDisplay:10.37,2013-10-06 11:59:00,
2013-10-06 08:04:00,65.3,64.4,29.40,WSW,241,0.0,0.0,97,0.00,CLR,,0.00,WeatherDisplay:10.37,2013-10-06 12:04:00,
2013-10-06 08:09:00,65.2,64.3,29.41,WSW,241,0.0,0.0,97,0.00,CLR,,0.00,WeatherDisplay:10.37,2013-10-06 12:09:00,
2013-10-06 08:14:00,65.3,64.4,29.41,WSW,241,0.0,0.0,97,0.00,CLR,,0.00,WeatherDisplay:10.37,2013-10-06 12:14:00,
2013-10-06 08:19:00,65.5,64.9,29.41,WSW,241,0.0,0.0,98,0.00,CLR,,0.00,WeatherDisplay:10.37,2013-10-06 12:19:00,
2013-10-06 08:24:00,66.0,65.4,29.41,WSW,241,0.0,0.0,98,0.00,CLR,,0.00,WeatherDisplay:10.37,2013-10-06 12:24:00,
2013-10-06 08:29:00,66.3,65.7,29.41,WSW,241,0.0,0.0,98,0.00,CLR,,0.00,WeatherDisplay:10.37,2013-10-06 12:29:00,
2013-10-06 08:34:00,66.4,65.8,29.41,East,95,0.0,0.0,98,0.00,CLR,,0.00,WeatherDisplay:10.37,2013-10-06 12:34:00,
2013-10-06 08:39:00,66.8,66.2,29.41,East,95,0.0,0.0,98,0.00,CLR,,0.00,WeatherDisplay:10.37,2013-10-06 12:39:00,
2013-10-06 08:44:00,67.3,66.7,29.41,SSW,203,0.0,0.0,98,0.00,CLR,,0.00,WeatherDisplay:10.37,2013-10-06 12:44:00,
2013-10-06 08:49:00,67.8,67.2,29.41,SSW,200,0.0,0.0,98,0.00,CLR,,0.00,WeatherDisplay:10.37,2013-10-06 12:49:00,
2013-10-06 08:54:00,68.3,67.7,29.41,SSW,202,0.0,0.0,98,0.00,CLR,,0.00,WeatherDisplay:10.37,2013-10-06 12:54:00,
2013-10-06 08:59:00,68.6,67.7,29.41,WSW,244,3.5,0.0,97,0.00,CLR,,0.00,WeatherDisplay:10.37,2013-10-06 12:59:00,
2013-10-06 09:04:00,69.3,68.4,29.41,WSW,244,0.0,0.0,97,0.00,CLR,,0.00,WeatherDisplay:10.37,2013-10-06 13:04:00,
2013-10-06 09:09:00,69.6,68.4,29.42,WSW,246,3.5,0.0,96,0.00,CLR,,0.00,WeatherDisplay:10.37,2013-10-06 13:09:00,
2013-10-06 09:14:00,69.9,68.4,29.42,WSW,256,5.8,5.8,95,0.00,CLR,,0.00,WeatherDisplay:10.37,2013-10-06 13:14:00,
2013-10-06 09:19:00,70.3,68.2,29.42,WSW,256,3.5,3.5,93,0.00,CLR,,0.00,WeatherDisplay:10.37,2013-10-06 13:19:00,
2013-10-06 09:24:00,70.6,68.2,29.42,WSW,250,4.6,4.6,92,0.00,CLR,,0.00,WeatherDisplay:10.37,2013-10-06 13:24:00,
2013-10-06 09:29:00,70.9,67.8,29.42,WSW,253,7.0,7.0,90,0.00,CLR,,0.00,WeatherDisplay:10.37,2013-10-06 13:29:00,
2013-10-06 09:34:00,71.1,67.7,29.42,WSW,241,5.8,5.8,89,0.00,CLR,,0.00,WeatherDisplay:10.37,2013-10-06 13:34:00,
2013-10-06 09:39:00,71.5,67.8,29.42,WSW,258,4.6,4.6,88,0.00,CLR,,0.00,WeatherDisplay:10.37,2013-10-06 13:39:00,
2013-10-06 09:44:00,71.8,67.7,29.42,WSW,247,4.6,4.6,87,0.00,CLR,,0.00,WeatherDisplay:10.37,2013-10-06 13:44:00,
2013-10-06 09:49:00,72.1,67.7,29.42,WSW,253,3.5,0.0,86,0.00,CLR,,0.00,WeatherDisplay:10.37,2013-10-06 13:49:00,
2013-10-06 09:54:00,72.7,67.9,29.42,WSW,253,3.5,3.5,85,0.00,CLR,,0.00,WeatherDisplay:10.37,2013-10-06 13:54:00,
2013-10-06 09:59:00,73.0,67.5,29.42,WSW,253,0.0,0.0,83,0.00,CLR,,0.00,WeatherDisplay:10.37,2013-10-06 13:59:00,
2013-10-06 10:04:00,73.7,67.1,29.42,WSW,253,3.5,3.5,80,0.00,CLR,,0.00,WeatherDisplay:10.37,2013-10-06 14:04:00,
2013-10-06 10:09:00,74.0,67.1,29.42,SSW,203,0.0,0.0,79,0.00,CLR,,0.00,WeatherDisplay:10.37,2013-10-06 14:09:00,
2013-10-06 10:14:00,74.0,66.7,29.42,WSW,247,4.6,4.6,78,0.00,CLR,,0.00,WeatherDisplay:10.37,2013-10-06 14:14:00,
2013-10-06 10:19:00,74.0,66.7,29.42,WSW,254,3.5,3.5,78,0.00,CLR,,0.00,WeatherDisplay:10.37,2013-10-06 14:19:00,
2013-10-06 10:24:00,74.4,67.1,29.42,SSE,160,1.1,1.1,78,0.00,CLR,,0.00,WeatherDisplay:10.37,2013-10-06 14:24:00,
2013-10-06 10:29:00,74.6,66.1,29.42,WSW,246,10.4,10.4,75,0.00,CLR,,0.00,WeatherDisplay:10.37,2013-10-06 14:29:00,
2013-10-06 10:34:00,74.6,66.9,29.42,WSW,240,0.0,0.0,77,0.00,CLR,,0.00,WeatherDisplay:10.37,2013-10-06 14:34:00,
2013-10-06 10:39:00,75.1,67.0,29.42,SW,236,0.0,0.0,76,0.00,CLR,,0.00,WeatherDisplay:10.37,2013-10-06 14:39:00,
2013-10-06 10:44:00,75.3,66.8,29.42,WSW,256,5.8,5.8,75,0.00,CLR,,0.00,WeatherDisplay:10.37,2013-10-06 14:44:00,
2013-10-06 10:49:00,75.3,67.2,29.42,SSE,158,0.0,0.0,76,0.00,CLR,,0.00,WeatherDisplay:10.37,2013-10-06 14:49:00,
2013-10-06 10:54:00,75.8,66.9,29.42,SSW,212,1.1,0.0,74,0.00,CLR,,0.00,WeatherDisplay:10.37,2013-10-06 14:54:00,
2013-10-06 10:59:00,76.3,67.4,29.42,WSW,244,3.5,0.0,74,0.00,CLR,,0.00,WeatherDisplay:10.37,2013-10-06 14:59:00,
2013-10-06 11:04:00,76.3,67.4,29.42,West,270,8.1,8.1,74,0.00,CLR,,0.00,WeatherDisplay:10.37,2013-10-06 15:04:00,
2013-10-06 11:09:00,76.7,67.8,29.41,SSW,195,1.1,1.1,74,0.00,CLR,,0.00,WeatherDisplay:10.37,2013-10-06 15:09:00,
2013-10-06 11:14:00,77.0,67.7,29.41,ESE,102,0.0,0.0,73,0.00,CLR,,0.00,WeatherDisplay:10.37,2013-10-06 15:14:00,
2013-10-06 11:19:00,77.4,68.1,29.41,WSW,251,5.8,5.8,73,0.00,CLR,,0.00,WeatherDisplay:10.37,2013-10-06 15:19:00,
2013-10-06 11:24:00,77.4,67.7,29.41,WSW,247,5.8,5.8,72,0.00,CLR,,0.00,WeatherDisplay:10.37,2013-10-06 15:24:00,
2013-10-06 11:29:00,76.5,67.6,29.41,West,267,3.5,3.5,74,0.00,CLR,,0.00,WeatherDisplay:10.37,2013-10-06 15:29:00,
2013-10-06 11:34:00,76.5,67.6,29.41,WSW,251,10.4,10.4,74,0.00,CLR,,0.00,WeatherDisplay:10.37,2013-10-06 15:34:00,
2013-10-06 11:39:00,76.3,67.8,29.41,WSW,256,2.3,0.0,75,0.00,CLR,,0.00,WeatherDisplay:10.37,2013-10-06 15:39:00,
2013-10-06 11:44:00,76.5,67.6,29.41,WSW,239,0.0,0.0,74,0.00,CLR,,0.00,WeatherDisplay:10.37,2013-10-06 15:44:00,
2013-10-06 11:50:00,77.4,68.5,29.41,West,280,5.0,5.0,74,0.00,CLR,,0.00,WeatherDisplay:10.37,2013-10-06 15:50:00,
2013-10-06 11:55:00,77.9,67.7,29.41,WSW,246,3.5,3.5,71,0.00,CLR,,0.00,WeatherDisplay:10.37,2013-10-06 15:55:00,
2013-10-06 12:00:00,78.1,67.5,29.41,West,271,6.9,6.9,70,0.00,CLR,,0.00,WeatherDisplay:10.37,2013-10-06 16:00:00,
2013-10-06 12:05:00,78.1,68.3,29.41,SSW,210,9.2,9.2,72,0.00,CLR,,0.00,WeatherDisplay:10.37,2013-10-06 16:05:00,
2013-10-06 12:10:00,77.9,67.7,29.40,NE,37,6.9,6.9,71,0.00,CLR,,0.00,WeatherDisplay:10.37,2013-10-06 16:10:00,
2013-10-06 12:15:00,78.1,67.9,29.40,ESE,106,2.3,2.3,71,0.00,CLR,,0.00,WeatherDisplay:10.37,2013-10-06 16:15:00,
2013-10-06 12:20:00,78.6,68.4,29.40,South,181,11.5,0.0,71,0.00,CLR,,0.00,WeatherDisplay:10.37,2013-10-06 16:20:00,
2013-10-06 12:25:00,79.2,68.1,29.40,West,267,2.3,2.6,69,0.00,CLR,,0.00,WeatherDisplay:10.37,2013-10-06 16:25:00,
2013-10-06 12:30:00,78.6,68.0,29.40,South,169,0.0,0.0,70,0.00,CLR,,0.00,WeatherDisplay:10.37,2013-10-06 16:30:00,
2013-10-06 12:35:00,78.6,68.0,29.40,West,272,3.5,3.5,70,0.00,CLR,,0.00,WeatherDisplay:10.37,2013-10-06 16:35:00,
2013-10-06 12:40:00,78.8,68.2,29.39,East,100,3.5,0.0,70,0.00,CLR,,0.00,WeatherDisplay:10.37,2013-10-06 16:40:00,
2013-10-06 12:45:00,79.2,68.6,29.39,ESE,112,3.5,3.5,70,0.00,CLR,,0.00,WeatherDisplay:10.37,2013-10-06 16:45:00,
2013-10-06 12:50:00,79.8,68.3,29.39,NE,44,6.9,6.9,68,0.00,CLR,,0.00,WeatherDisplay:10.37,2013-10-06 16:50:00,
2013-10-06 12:55:00,79.8,67.9,29.38,SW,226,4.6,4.6,67,0.00,CLR,,0.00,WeatherDisplay:10.37,2013-10-06 16:55:00,
2013-10-06 13:00:00,79.8,68.7,29.38,WSW,241,11.0,11.0,69,0.00,CLR,,0.00,WeatherDisplay:10.37,2013-10-06 17:00:00,
2013-10-06 13:05:00,79.0,68.4,29.38,WSW,254,5.8,5.8,70,0.00,CLR,,0.00,WeatherDisplay:10.37,2013-10-06 17:05:00,
2013-10-06 13:10:00,78.8,68.2,29.38,SW,224,5.8,5.8,70,0.00,CLR,,0.00,WeatherDisplay:10.37,2013-10-06 17:10:00,
2013-10-06 13:15:00,78.6,67.6,29.38,West,263,5.8,5.8,69,0.00,CLR,,0.00,WeatherDisplay:10.37,2013-10-06 17:15:00,
2013-10-06 13:20:00,78.1,67.9,29.38,West,280,8.1,8.1,71,0.00,CLR,,0.00,WeatherDisplay:10.37,2013-10-06 17:20:00,
2013-10-06 13:25:00,77.7,68.4,29.37,East,96,2.3,0.0,73,0.00,CLR,,0.00,WeatherDisplay:10.37,2013-10-06 17:25:00,
2013-10-06 13:30:00,78.1,67.5,29.37,WSW,237,3.5,3.5,70,0.00,CLR,,0.00,WeatherDisplay:10.37,2013-10-06 17:30:00,
2013-10-06 13:35:00,78.6,67.6,29.37,West,261,3.5,3.5,69,0.00,CLR,,0.00,WeatherDisplay:10.37,2013-10-06 17:35:00,
2013-10-06 13:40:00,79.0,67.5,29.36,SE,131,1.1,1.1,68,0.00,CLR,,0.00,WeatherDisplay:10.37,2013-10-06 17:40:00,
2013-10-06 13:45:00,79.0,66.7,29.36,SW,224,6.9,6.9,66,0.00,CLR,,0.00,WeatherDisplay:10.37,2013-10-06 17:45:00,
2013-10-06 13:50:00,79.2,66.9,29.36,South,189,6.9,6.9,66,0.00,CLR,,0.00,WeatherDisplay:10.37,2013-10-06 17:50:00,
2013-10-06 13:55:00,79.6,66.8,29.36,WNW,298,6.9,6.9,65,0.00,CLR,,0.00,WeatherDisplay:10.37,2013-10-06 17:55:00,
2013-10-06 14:00:00,79.2,66.9,29.36,ESE,102,3.5,3.5,66,0.00,CLR,,0.00,WeatherDisplay:10.37,2013-10-06 18:00:00,
2013-10-06 14:05:00,79.6,67.2,29.36,SW,232,0.0,0.0,66,0.00,CLR,,0.00,WeatherDisplay:10.37,2013-10-06 18:05:00,
2013-10-06 14:10:00,80.3,67.0,29.35,North,0,1.1,1.1,64,0.00,CLR,,0.00,WeatherDisplay:10.37,2013-10-06 18:10:00,
2013-10-06 14:15:00,80.7,67.4,29.35,ENE,66,3.5,3.5,64,0.00,CLR,,0.00,WeatherDisplay:10.37,2013-10-06 18:15:00,
2013-10-06 14:20:00,81.1,67.3,29.35,NNE,23,0.0,0.0,63,0.00,CLR,,0.00,WeatherDisplay:10.37,2013-10-06 18:20:00,
2013-10-06 14:25:00,81.2,67.4,29.35,West,265,0.0,0.1,63,0.00,CLR,,0.00,WeatherDisplay:10.37,2013-10-06 18:25:00,
2013-10-06 14:30:00,81.8,67.5,29.35,WSW,241,0.0,0.0,62,0.00,CLR,,0.00,WeatherDisplay:10.37,2013-10-06 18:30:00,
2013-10-06 14:35:00,81.8,67.0,29.35,ESE,107,4.6,4.6,61,0.00,CLR,,0.00,WeatherDisplay:10.37,2013-10-06 18:35:00,
2013-10-06 14:40:00,82.0,67.7,29.34,SE,126,1.1,0.0,62,0.00,CLR,,0.00,WeatherDisplay:10.37,2013-10-06 18:40:00,
2013-10-06 14:45:00,82.8,67.5,29.34,SW,223,0.0,0.0,60,0.00,CLR,,0.00,WeatherDisplay:10.37,2013-10-06 18:45:00,
2013-10-06 14:50:00,82.8,67.5,29.34,ENE,72,0.0,0.5,60,0.00,CLR,,0.00,WeatherDisplay:10.37,2013-10-06 18:50:00,
2013-10-06 14:55:00,82.8,68.0,29.34,East,99,0.0,0.0,61,0.00,CLR,,0.00,WeatherDisplay:10.37,2013-10-06 18:55:00,
2013-10-06 15:00:00,81.8,68.0,29.34,ENE,76,3.5,0.0,63,0.00,CLR,,0.00,WeatherDisplay:10.37,2013-10-06 19:00:00,
2013-10-06 15:05:00,81.1,67.8,29.34,East,95,0.0,0.0,64,0.00,CLR,,0.00,WeatherDisplay:10.37,2013-10-06 19:05:00,
2013-10-06 15:10:00,81.2,68.3,29.33,WSW,251,3.5,3.5,65,0.00,CLR,,0.00,WeatherDisplay:10.37,2013-10-06 19:10:00,
2013-10-06 15:15:00,81.4,67.6,29.33,NNW,343,0.0,0.0,63,0.00,CLR,,0.00,WeatherDisplay:10.37,2013-10-06 19:15:00,
2013-10-06 15:20:00,81.6,67.8,29.33,SSE,150,4.6,4.6,63,0.00,CLR,,0.00,WeatherDisplay:10.37,2013-10-06 19:20:00,
2013-10-06 15:25:00,82.0,67.7,29.33,SSE,152,1.1,1.1,62,0.00,CLR,,0.00,WeatherDisplay:10.37,2013-10-06 19:25:00,
2013-10-06 15:30:00,81.6,67.3,29.33,SW,223,1.1,1.1,62,0.00,CLR,,0.00,WeatherDisplay:10.37,2013-10-06 19:30:00,
2013-10-06 15:35:00,81.4,68.1,29.33,SE,124,0.0,0.0,64,0.00,CLR,,0.00,WeatherDisplay:10.37,2013-10-06 19:35:00,
2013-10-06 15:40:00,82.2,68.3,29.32,North,3,0.0,0.0,63,0.00,CLR,,0.00,WeatherDisplay:10.37,2013-10-06 19:40:00,
2013-10-06 15:45:00,82.2,67.9,29.32,East,85,0.0,0.0,62,0.00,CLR,,0.00,WeatherDisplay:10.37,2013-10-06 19:45:00,
2013-10-06 15:50:00,82.0,68.2,29.32,East,95,2.3,2.3,63,0.00,CLR,,0.00,WeatherDisplay:10.37,2013-10-06 19:50:00,
2013-10-06 15:55:00,81.6,68.2,29.32,ENE,75,3.5,3.5,64,0.00,CLR,,0.00,WeatherDisplay:10.37,2013-10-06 19:55:00,
2013-10-06 16:00:00,81.8,68.0,29.32,East,92,2.3,2.3,63,0.00,CLR,,0.00,WeatherDisplay:10.37,2013-10-06 20:00:00,
2013-10-06 16:05:00,82.0,67.7,29.32,ESE,112,2.3,2.3,62,0.00,CLR,,0.00,WeatherDisplay:10.37,2013-10-06 20:05:00,
2013-10-06 16:10:00,82.6,68.3,29.31,ESE,119,1.1,1.1,62,0.00,CLR,,0.00,WeatherDisplay:10.37,2013-10-06 20:10:00,
2013-10-06 16:15:00,83.2,67.9,29.31,ESE,112,2.3,2.3,60,0.00,CLR,,0.00,WeatherDisplay:10.37,2013-10-06 20:15:00,
2013-10-06 16:20:00,83.2,68.3,29.31,ESE,113,0.0,0.0,61,0.00,CLR,,0.00,WeatherDisplay:10.37,2013-10-06 20:20:00,
2013-10-06 16:26:00,83.0,68.2,29.31,SE,131,2.3,2.3,61,0.00,CLR,,0.00,WeatherDisplay:10.37,2013-10-06 20:26:00,
2013-10-06 16:31:00,82.6,68.3,29.31,East,93,5.8,5.8,62,0.00,CLR,,0.00,WeatherDisplay:10.37,2013-10-06 20:31:00,
2013-10-06 16:36:00,82.0,68.2,29.31,NW,309,0.0,0.0,63,0.00,CLR,,0.00,WeatherDisplay:10.37,2013-10-06 20:36:00,
2013-10-06 16:41:00,81.4,68.1,29.31,SE,138,0.0,0.0,64,0.00,CLR,,0.00,WeatherDisplay:10.37,2013-10-06 20:41:00,
2013-10-06 16:46:00,80.9,68.0,29.31,ESE,112,0.0,0.0,65,0.00,CLR,,0.00,WeatherDisplay:10.37,2013-10-06 20:46:00,
2013-10-06 16:51:00,81.1,68.2,29.31,ESE,112,0.0,0.0,65,0.00,CLR,,0.00,WeatherDisplay:10.37,2013-10-06 20:51:00,
2013-10-06 16:56:00,81.4,68.5,29.31,East,99,0.0,0.0,65,0.00,CLR,,0.00,WeatherDisplay:10.37,2013-10-06 20:56:00,
2013-10-06 17:01:00,81.4,68.1,29.31,East,88,0.0,0.0,64,0.00,CLR,,0.00,WeatherDisplay:10.37,2013-10-06 21:01:00,
2013-10-06 17:06:00,81.1,68.2,29.31,East,88,0.0,0.0,65,0.00,CLR,,0.00,WeatherDisplay:10.37,2013-10-06 21:06:00,
2013-10-06 17:11:00,80.3,68.3,29.31,East,88,0.0,0.0,67,0.00,CLR,,0.00,WeatherDisplay:10.37,2013-10-06 21:11:00,
2013-10-06 17:16:00,79.9,68.4,29.31,SE,124,0.0,0.0,68,0.00,CLR,,0.00,WeatherDisplay:10.37,2013-10-06 21:16:00,
2013-10-06 17:21:00,79.9,68.8,29.31,ENE,71,0.0,0.0,69,0.00,CLR,,0.00,WeatherDisplay:10.37,2013-10-06 21:21:00,
2013-10-06 17:26:00,79.8,68.7,29.31,ESE,117,0.0,0.0,69,0.00,CLR,,0.00,WeatherDisplay:10.37,2013-10-06 21:26:00,
2013-10-06 17:31:00,79.6,69.0,29.31,ESE,117,1.1,0.0,70,0.00,CLR,,0.00,WeatherDisplay:10.37,2013-10-06 21:31:00,
2013-10-06 17:36:00,79.2,69.0,29.31,ESE,119,0.0,0.0,71,0.00,CLR,,0.00,WeatherDisplay:10.37,2013-10-06 21:36:00,
2013-10-06 17:41:00,78.8,69.0,29.30,ESE,102,0.0,0.1,72,0.00,CLR,,0.00,WeatherDisplay:10.37,2013-10-06 21:41:00,
2013-10-06 17:46:00,78.6,68.8,29.30,NE,55,0.0,0.0,72,0.00,CLR,,0.00,WeatherDisplay:10.37,2013-10-06 21:46:00,
2013-10-06 17:51:00,78.5,68.7,29.30,SE,127,0.0,0.0,72,0.00,CLR,,0.00,WeatherDisplay:10.37,2013-10-06 21:51:00,
2013-10-06 17:56:00,78.3,68.9,29.31,SE,124,0.0,0.0,73,0.00,CLR,,0.00,WeatherDisplay:10.37,2013-10-06 21:56:00,
2013-10-06 18:01:00,77.9,68.5,29.31,NNE,24,0.0,0.0,73,0.00,CLR,,0.00,WeatherDisplay:10.37,2013-10-06 22:01:00,
2013-10-06 18:06:00,77.6,69.0,29.31,ESE,116,0.0,0.0,75,0.00,CLR,,0.00,WeatherDisplay:10.37,2013-10-06 22:06:00,
2013-10-06 18:11:00,77.2,68.7,29.31,East,99,3.5,3.5,75,0.00,CLR,,0.00,WeatherDisplay:10.37,2013-10-06 22:11:00,
2013-10-06 18:16:00,77.0,68.5,29.31,East,100,1.1,0.0,75,0.00,CLR,,0.00,WeatherDisplay:10.37,2013-10-06 22:16:00,
2013-10-06 18:21:00,76.7,68.2,29.31,ESE,110,3.5,3.5,75,0.00,CLR,,0.00,WeatherDisplay:10.37,2013-10-06 22:21:00,
2013-10-06 18:26:00,76.3,68.2,29.31,SE,128,0.0,0.1,76,0.00,CLR,,0.00,WeatherDisplay:10.37,2013-10-06 22:26:00,
2013-10-06 18:31:00,76.1,68.0,29.31,East,79,0.0,0.0,76,0.00,CLR,,0.00,WeatherDisplay:10.37,2013-10-06 22:31:00,
2013-10-06 18:36:00,75.8,68.1,29.31,SE,138,4.6,4.6,77,0.00,CLR,,0.00,WeatherDisplay:10.37,2013-10-06 22:36:00,
2013-10-06 18:41:00,75.4,68.1,29.31,SE,138,0.0,0.0,78,0.00,CLR,,0.00,WeatherDisplay:10.37,2013-10-06 22:41:00,
2013-10-06 18:46:00,75.3,68.3,29.31,ESE,107,1.1,0.0,79,0.00,CLR,,0.00,WeatherDisplay:10.37,2013-10-06 22:46:00,
2013-10-06 18:51:00,75.1,68.1,29.31,East,85,1.1,0.0,79,0.00,CLR,,0.00,WeatherDisplay:10.37,2013-10-06 22:51:00,
2013-10-06 18:56:00,74.7,68.1,29.31,ESE,116,0.0,0.0,80,0.00,CLR,,0.00,WeatherDisplay:10.37,2013-10-06 22:56:00,
2013-10-06 19:01:00,74.6,68.4,29.31,ESE,119,0.0,0.0,81,0.00,CLR,,0.00,WeatherDisplay:10.37,2013-10-06 23:01:00,
2013-10-06 19:06:00,74.2,68.0,29.31,ESE,119,0.0,0.0,81,0.00,CLR,,0.00,WeatherDisplay:10.37,2013-10-06 23:06:00,
2013-10-06 19:11:00,74.0,68.2,29.31,ESE,119,0.0,0.0,82,0.00,CLR,,0.00,WeatherDisplay:10.37,2013-10-06 23:11:00,
2013-10-06 19:16:00,73.9,68.4,29.31,ESE,119,0.0,0.0,83,0.00,CLR,,0.00,WeatherDisplay:10.37,2013-10-06 23:16:00,
2013-10-06 19:21:00,73.5,68.0,29.31,ESE,107,0.0,0.0,83,0.00,CLR,,0.00,WeatherDisplay:10.37,2013-10-06 23:21:00,
2013-10-06 19:26:00,73.3,68.2,29.31,ESE,107,0.0,0.0,84,0.00,CLR,,0.00,WeatherDisplay:10.37,2013-10-06 23:26:00,
2013-10-06 19:31:00,73.2,68.1,29.31,ESE,107,0.0,0.0,84,0.00,CLR,,0.00,WeatherDisplay:10.37,2013-10-06 23:31:00,
2013-10-06 19:36:00,73.2,68.1,29.31,ESE,107,0.0,0.0,84,0.00,CLR,,0.00,WeatherDisplay:10.37,2013-10-06 23:36:00,
2013-10-06 19:41:00,73.0,67.9,29.31,ESE,107,0.0,0.0,84,0.00,CLR,,0.00,WeatherDisplay:10.37,2013-10-06 23:41:00,
2013-10-06 19:46:00,72.8,67.7,29.31,ESE,107,0.0,0.0,84,0.00,CLR,,0.00,WeatherDisplay:10.37,2013-10-06 23:46:00,
2013-10-06 19:51:00,72.8,67.7,29.31,North,0,0.0,0.0,84,0.00,CLR,,0.00,WeatherDisplay:10.37,2013-10-06 23:51:00,
2013-10-06 19:56:00,72.7,68.3,29.31,North,0,0.0,0.0,86,0.00,CLR,,0.00,WeatherDisplay:10.37,2013-10-06 23:56:00,
2013-10-06 20:01:00,72.7,68.3,29.31,North,0,0.0,0.0,86,0.00,CLR,,0.00,WeatherDisplay:10.37,2013-10-07 00:01:00,
2013-10-06 20:06:00,72.5,68.1,29.31,North,0,0.0,0.0,86,0.00,CLR,,0.00,WeatherDisplay:10.37,2013-10-07 00:06:00,
2013-10-06 20:11:00,72.5,68.4,29.31,North,0,0.0,0.0,87,0.00,CLR,,0.00,WeatherDisplay:10.37,2013-10-07 00:11:00,
2013-10-06 20:16:00,72.3,68.2,29.31,East,88,0.0,0.0,87,0.00,CLR,,0.00,WeatherDisplay:10.37,2013-10-07 00:16:00,
2013-10-06 20:21:00,72.3,68.5,29.31,East,88,0.0,0.0,88,0.00,CLR,,0.00,WeatherDisplay:10.37,2013-10-07 00:21:00,
2013-10-06 20:26:00,72.1,68.3,29.32,SE,144,0.0,0.0,88,0.00,CLR,,0.00,WeatherDisplay:10.37,2013-10-07 00:26:00,
2013-10-06 20:31:00,72.1,68.3,29.32,SE,143,0.0,0.0,88,0.00,CLR,,0.00,WeatherDisplay:10.37,2013-10-07 00:31:00,
2013-10-06 20:36:00,72.1,68.3,29.32,SE,143,0.0,0.0,88,0.00,CLR,,0.00,WeatherDisplay:10.37,2013-10-07 00:36:00,
2013-10-06 20:41:00,72.0,68.2,29.31,SE,128,0.0,0.0,88,0.00,CLR,,0.00,WeatherDisplay:10.37,2013-10-07 00:41:00,
2013-10-06 20:46:00,72.0,68.6,29.31,SE,124,5.8,5.8,89,0.00,CLR,,0.00,WeatherDisplay:10.37,2013-10-07 00:46:00,
2013-10-06 20:51:00,72.0,68.6,29.31,WSW,251,0.0,0.0,89,0.00,CLR,,0.00,WeatherDisplay:10.37,2013-10-07 00:51:00,
2013-10-06 20:56:00,72.0,68.6,29.31,South,169,0.0,0.0,89,0.00,CLR,,0.00,WeatherDisplay:10.37,2013-10-07 00:56:00,
2013-10-06 21:01:00,71.8,68.4,29.31,East,90,0.0,0.0,89,0.00,CLR,,0.00,WeatherDisplay:10.37,2013-10-07 01:01:00,
2013-10-06 21:06:00,71.8,68.4,29.31,East,86,0.0,0.0,89,0.00,CLR,,0.00,WeatherDisplay:10.37,2013-10-07 01:06:00,
2013-10-06 21:12:00,71.8,68.4,29.31,East,83,0.0,0.0,89,0.00,CLR,,0.00,WeatherDisplay:10.37,2013-10-07 01:12:00,
2013-10-06 21:17:00,71.8,68.4,29.31,SSW,203,0.0,0.0,89,0.00,CLR,,0.00,WeatherDisplay:10.37,2013-10-07 01:17:00,
2013-10-06 21:22:00,71.6,68.2,29.31,SW,229,2.3,2.3,89,0.00,CLR,,0.00,WeatherDisplay:10.37,2013-10-07 01:22:00,
2013-10-06 21:27:00,71.6,68.2,29.31,ENE,59,0.0,0.0,89,0.00,CLR,,0.00,WeatherDisplay:10.37,2013-10-07 01:27:00,
2013-10-06 21:32:00,71.5,68.1,29.31,ENE,61,0.0,0.0,89,0.00,CLR,,0.00,WeatherDisplay:10.37,2013-10-07 01:32:00,
2013-10-06 21:37:00,71.5,68.4,29.31,SE,127,3.5,0.0,90,0.00,CLR,,0.00,WeatherDisplay:10.37,2013-10-07 01:37:00,
2013-10-06 21:42:00,71.3,68.2,29.31,ESE,110,0.0,0.0,90,0.00,CLR,,0.00,WeatherDisplay:10.37,2013-10-07 01:42:00,
2013-10-06 21:47:00,71.1,68.3,29.31,ESE,110,0.0,0.0,91,0.00,CLR,,0.00,WeatherDisplay:10.37,2013-10-07 01:47:00,
2013-10-06 21:52:00,71.1,68.3,29.31,NNE,28,0.0,0.0,91,0.00,CLR,,0.00,WeatherDisplay:10.37,2013-10-07 01:52:00,
2013-10-06 21:57:00,71.3,68.5,29.32,ENE,73,0.0,0.0,91,0.00,CLR,,0.00,WeatherDisplay:10.37,2013-10-07 01:57:00,
2013-10-06 22:02:00,71.3,68.5,29.32,ESE,117,0.0,0.0,91,0.00,CLR,,0.00,WeatherDisplay:10.37,2013-10-07 02:02:00,
2013-10-06 22:07:00,71.3,68.5,29.32,ESE,123,1.1,1.1,91,0.00,CLR,,0.00,WeatherDisplay:10.37,2013-10-07 02:07:00,
2013-10-06 22:12:00,71.3,68.5,29.32,ESE,123,0.0,0.0,91,0.00,CLR,,0.00,WeatherDisplay:10.37,2013-10-07 02:12:00,
2013-10-06 22:17:00,71.5,68.7,29.32,West,277,3.5,3.5,91,0.00,CLR,,0.00,WeatherDisplay:10.37,2013-10-07 02:17:00,
2013-10-06 22:22:00,71.5,68.7,29.32,ESE,116,0.0,0.0,91,0.00,CLR,,0.00,WeatherDisplay:10.37,2013-10-07 02:22:00,
2013-10-06 22:27:00,71.5,68.7,29.32,NE,44,1.1,1.1,91,0.00,CLR,,0.00,WeatherDisplay:10.37,2013-10-07 02:27:00,
2013-10-06 22:32:00,71.6,68.8,29.32,ESE,117,0.0,0.0,91,0.00,CLR,,0.00,WeatherDisplay:10.37,2013-10-07 02:32:00,
2013-10-06 22:37:00,71.6,68.8,29.32,WSW,244,0.0,0.0,91,0.00,CLR,,0.00,WeatherDisplay:10.37,2013-10-07 02:37:00,
2013-10-06 22:42:00,71.8,69.0,29.31,East,97,0.0,0.6,91,0.00,CLR,,0.00,WeatherDisplay:10.37,2013-10-07 02:42:00,
2013-10-06 22:47:00,71.8,69.0,29.31,West,265,0.0,0.0,91,0.00,CLR,,0.00,WeatherDisplay:10.37,2013-10-07 02:47:00,
2013-10-06 22:52:00,71.8,69.0,29.31,West,272,0.0,0.0,91,0.00,CLR,,0.00,WeatherDisplay:10.37,2013-10-07 02:52:00,
2013-10-06 22:57:00,71.8,69.0,29.31,West,275,0.0,0.0,91,0.00,CLR,,0.00,WeatherDisplay:10.37,2013-10-07 02:57:00,
2013-10-06 23:02:00,71.8,69.0,29.31,ESE,119,0.0,0.0,91,0.00,CLR,,0.00,WeatherDisplay:10.37,2013-10-07 03:02:00,
2013-10-06 23:07:00,71.8,69.0,29.31,South,184,0.0,0.0,91,0.00,CLR,,0.00,WeatherDisplay:10.37,2013-10-07 03:07:00,
2013-10-06 23:12:00,71.8,69.0,29.31,West,264,1.1,0.0,91,0.00,CLR,,0.00,WeatherDisplay:10.37,2013-10-07 03:12:00,
2013-10-06 23:17:00,71.8,69.0,29.31,West,264,0.0,0.0,91,0.00,CLR,,0.00,WeatherDisplay:10.37,2013-10-07 03:17:00,
2013-10-06 23:22:00,71.8,68.7,29.31,East,85,0.0,0.0,90,0.00,CLR,,0.00,WeatherDisplay:10.37,2013-10-07 03:22:00,
2013-10-06 23:27:00,71.8,68.7,29.31,West,275,0.0,0.0,90,0.00,CLR,,0.00,WeatherDisplay:10.37,2013-10-07 03:27:00,
2013-10-06 23:32:00,71.8,68.7,29.31,West,261,0.0,0.0,90,0.00,CLR,,0.00,WeatherDisplay:10.37,2013-10-07 03:32:00,
2013-10-06 23:37:00,71.8,68.7,29.31,West,261,0.0,0.0,90,0.00,CLR,,0.00,WeatherDisplay:10.37,2013-10-07 03:37:00,
2013-10-06 23:42:00,71.8,68.7,29.31,West,261,0.0,0.0,90,0.00,CLR,,0.00,WeatherDisplay:10.37,2013-10-07 03:42:00,
2013-10-06 23:47:00,71.8,68.7,29.31,West,261,0.0,0.0,90,0.00,CLR,,0.00,WeatherDisplay:10.37,2013-10-07 03:47:00,
2013-10-06 23:52:00,71.8,68.7,29.31,West,261,0.0,0.0,90,0.00,CLR,,0.00,WeatherDisplay:10.37,2013-10-07 03:52:00,
2013-10-06 23:57:00,71.8,68.7,29.31,West,261,0.0,0.0,90,0.00,CLR,,0.00,WeatherDisplay:10.37,2013-10-07 03:57:00,